Location: Peebles
(55.6412°N, 3.1714°W)
Time: 14:24:11
(UTC+01:00)

Cosmos 990 Rocket - Pass Details

Date: 26 September 2021
Orbit: 746 x 769 km, 74.0° (Epoch: 17 October)

Event Time Altitude Azimuth Distance (km) Brightness Sun altitude
Rises 21:10:30 0° 184° (S) 3,188 7.0 -18.6°
Enters shadow 21:11:31 - 183° (S) 2,801 6.7 -18.7°
Exits shadow 21:14:33 20° 171° (S) 1,701 5.5 -19.1°
Maximum altitude 21:17:48 45° 108° (ESE) 1,028 4.2 -19.5°
Drops below altitude 10° 21:22:45 10° 37° (NE) 2,301 6.4 -20.1°
Sets 21:25:12 0° 31° (NNE) 3,235 7.2 -20.4°
